TimeAST,TemperatureF,Dew PointF,Humidity,Sea Level PressureIn,VisibilityMPH,Wind Direction,Wind SpeedMPH,Gust SpeedMPH,PrecipitationIn,Events,Conditions,WindDirDegrees,DateUTC
12:00 AM,87.8,78.8,75,29.68,-9999.0,Variable,2.3,-,N/A,,Clear,0,2012-09-18 21:00:00
12:30 AM,87.8,77.0,70,29.68,-9999.0,ENE,3.5,-,N/A,,Clear,70,2012-09-18 21:30:00
1:00 AM,86.0,77.0,74,29.68,-9999.0,North,3.5,-,N/A,,Clear,360,2012-09-18 22:00:00
1:30 AM,86.0,75.2,70,29.65,-9999.0,NE,3.5,-,N/A,,Clear,40,2012-09-18 22:30:00
2:00 AM,86.0,75.2,70,29.65,-9999.0,Calm,Calm,-,N/A,,Clear,0,2012-09-18 23:00:00
2:30 AM,87.8,73.4,62,29.65,-9999.0,NNW,3.5,-,N/A,,Clear,340,2012-09-18 23:30:00
3:00 AM,87,72,52,29.67,6,NW,3.5,,,,,310,2012-09-19 00:00:00
3:00 AM,86.0,71.6,62,29.65,-9999.0,NW,3.5,-,N/A,,Clear,310,2012-09-19 00:00:00
3:30 AM,86.0,71.6,62,29.65,-9999.0,NNW,3.5,-,N/A,,Clear,330,2012-09-19 00:30:00
4:00 AM,86.0,71.6,62,29.65,-9999.0,North,3.5,-,N/A,,Clear,350,2012-09-19 01:00:00
4:30 AM,86.0,73.4,66,29.65,-9999.0,Calm,Calm,-,N/A,,Clear,0,2012-09-19 01:30:00
5:00 AM,82.4,73.4,74,29.68,-9999.0,SW,3.5,-,N/A,,Clear,220,2012-09-19 02:00:00
5:30 AM,82.4,71.6,70,29.68,5.0,SSW,5.8,-,N/A,,Unknown,210,2012-09-19 02:30:00
6:00 AM,82.4,69.8,66,29.71,4.3,South,4.6,-,N/A,,Unknown,190,2012-09-19 03:00:00
6:30 AM,84.2,69.8,62,29.71,4.3,WSW,5.8,-,N/A,,Unknown,250,2012-09-19 03:30:00
7:00 AM,86.0,69.8,58,29.71,4.3,WSW,4.6,-,N/A,,Unknown,250,2012-09-19 04:00:00
7:30 AM,89.6,71.6,55,29.74,4.3,West,3.5,-,N/A,,Unknown,270,2012-09-19 04:30:00
8:00 AM,91.4,69.8,49,29.74,5.0,Variable,2.3,-,N/A,,Unknown,0,2012-09-19 05:00:00
8:30 AM,93.2,69.8,46,29.74,5.0,East,3.5,-,N/A,,Unknown,90,2012-09-19 05:30:00
9:00 AM,94,71,37,29.77,6,ESE,5.8,,,,Widespread Dust,120,2012-09-19 06:00:00
9:00 AM,95.0,71.6,47,29.74,5.6,ESE,5.8,-,N/A,,Unknown,120,2012-09-19 06:00:00
9:30 AM,95.0,73.4,49,29.74,-9999.0,East,5.8,-,N/A,,Clear,90,2012-09-19 06:30:00
10:00 AM,96.8,75.2,50,29.74,-9999.0,East,4.6,-,N/A,,Clear,80,2012-09-19 07:00:00
11:00 AM,96.8,73.4,47,29.74,-9999.0,ESE,10.4,-,N/A,,Clear,110,2012-09-19 08:00:00
11:30 AM,96.8,71.6,44,29.71,-9999.0,East,11.5,-,N/A,,Clear,100,2012-09-19 08:30:00
12:00 PM,98.6,66.2,35,29.71,-9999.0,ESE,8.1,-,N/A,,Clear,110,2012-09-19 09:00:00
12:30 PM,100.4,59.0,25,29.68,-9999.0,East,10.4,-,N/A,,Clear,90,2012-09-19 09:30:00
1:00 PM,100.4,53.6,21,29.68,-9999.0,East,8.1,-,N/A,,Clear,100,2012-09-19 10:00:00
1:30 PM,100.4,53.6,21,29.68,-9999.0,East,10.4,-,N/A,,Clear,90,2012-09-19 10:30:00
2:00 PM,100.4,59.0,25,29.68,-9999.0,East,8.1,-,N/A,,Clear,90,2012-09-19 11:00:00
2:30 PM,100.4,57.2,24,29.65,-9999.0,East,9.2,-,N/A,,Clear,90,2012-09-19 11:30:00
3:00 PM,100,61,19,29.68,7,East,9.2,,,,,80,2012-09-19 12:00:00
3:00 PM,100.4,60.8,27,29.65,-9999.0,East,9.2,-,N/A,,Clear,80,2012-09-19 12:00:00
3:30 PM,100.4,53.6,21,29.65,-9999.0,ENE,8.1,-,N/A,,Clear,70,2012-09-19 12:30:00
4:00 PM,98.6,60.8,29,29.68,-9999.0,ENE,5.8,-,N/A,,Clear,60,2012-09-19 13:00:00
5:00 PM,98.6,55.4,24,29.68,-9999.0,NE,5.8,-,N/A,,Clear,50,2012-09-19 14:00:00
5:30 PM,96.8,60.8,30,29.68,-9999.0,North,4.6,-,N/A,,Clear,10,2012-09-19 14:30:00
6:00 PM,95.0,64.4,36,29.68,-9999.0,North,4.6,-,N/A,,Clear,10,2012-09-19 15:00:00
6:30 PM,95.0,64.4,36,29.68,-9999.0,North,4.6,-,N/A,,Clear,350,2012-09-19 15:30:00
7:00 PM,95.0,68.0,41,29.71,-9999.0,North,3.5,-,N/A,,Clear,10,2012-09-19 16:00:00
7:30 PM,93.2,69.8,46,29.71,-9999.0,North,3.5,-,N/A,,Clear,350,2012-09-19 16:30:00
8:00 PM,93.2,69.8,46,29.71,-9999.0,North,4.6,-,N/A,,Clear,360,2012-09-19 17:00:00
8:30 PM,93.2,71.6,49,29.71,-9999.0,NNW,4.6,-,N/A,,Clear,340,2012-09-19 17:30:00
9:00 PM,92,72,43,29.73,7,North,3.5,,,,,0,2012-09-19 18:00:00
9:00 PM,93.2,71.6,49,29.71,-9999.0,North,3.5,-,N/A,,Clear,360,2012-09-19 18:00:00
9:30 PM,91.4,73.4,55,29.71,-9999.0,North,3.5,-,N/A,,Clear,10,2012-09-19 18:30:00
10:00 PM,91.4,73.4,55,29.71,-9999.0,North,3.5,-,N/A,,Clear,350,2012-09-19 19:00:00
10:30 PM,89.6,75.2,62,29.71,-9999.0,Calm,Calm,-,N/A,,Clear,0,2012-09-19 19:30:00
11:00 PM,91.4,64.4,41,29.71,-9999.0,Variable,1.2,-,N/A,,Clear,0,2012-09-19 20:00:00
11:30 PM,89.6,66.2,46,29.68,-9999.0,SW,3.5,-,N/A,,Clear,230,2012-09-19 20:30:00